Location: Degersen
(52.2871°N, 9.5716°E)
Time: 23:48:51
(UTC+00:00)

Cosmos 2263 Rocket - Pass Details

Date: 20 January 2026
Orbit: 821 x 849 km, 71.0° (Epoch: 9 February)

Event Time Altitude Azimuth Distance (km) Brightness Sun altitude
Exits shadow 05:10:36 - 339° (NNW) 2,558 4.4 -19.1°
Reaches altitude 10° 05:11:09 10° 344° (NNW) 2,485 4.4 -19.0°
Maximum altitude 05:13:04 12° 4° (N) 2,372 4.5 -18.7°
Drops below altitude 10° 05:15:00 10° 24° (NNE) 2,486 4.8 -18.4°
Sets 05:19:28 0° 57° (ENE) 3,421 6.1 -17.8°
